Location: Keewatin
(47.4004°N, 93.0827°W)
Time: 19:19:26
(UTC+00:00)

Envisat - Pass Details

Date: 11 December 2019
Orbit: 764 x 766 km, 98.1° (Epoch: 28 January)

Event Time Altitude Azimuth Distance (km) Brightness Sun altitude
Rises 12:22:19 0° 21° (NNE) 3,245 6.3 -14.0°
Reaches altitude 10° 12:24:51 10° 30° (NNE) 2,314 5.6 -13.6°
Maximum altitude 12:29:29 35° 96° (E) 1,234 4.8 -12.9°
Drops below altitude 10° 12:34:05 10° 161° (SSE) 2,297 6.0 -12.1°
Sets 12:36:34 0° 170° (S) 3,218 6.7 -11.7°
